Temperature
11 11 11 11 11 11 11 11 11 11 11 11 11 12 12 12 12 12 12 12 12 12 12 12 12 12 12 12 12 12 12 11 11 11 11 11 11 11
11 11 11 11 11 11 11 11 11 11 10 11 11 11 11 11 11 11 11 11 11 11 11 11 11 11 11 11 11 11 11 11 11 11 11 11 11 11
11 11 11 11 11 11 11 11 10 10 10 10 11 11 11 11 11 11 11 11 11 11 11 11 11 11 11 11 11 11 11 11 11 11 11 11 10 10
10 10 10 10 10 10 10 10 10 10 10 10 10 10 10 10 10 10 10 10 10 10 11 11 10 10 11 11 11 11 11 11 11 11 10 10 10 10
10 10 10 10 10 10 10 10 10 10 9 9 9 9 9 10 10 10 10 10 10 10 10 10 10 10 10 10 10 10 10 10 10 10 10 10 10 10
9 9 9 9 9 9 9 9 9 9 9 9 9 9 9 9 9 9 9 9 9 9 9 9 9 10 10 10 10 10 10 10 10 10 10 10 10 10
9 9 9 9 9 9 9 9 9 9 8 8 8 8 8 9 9 9 9 9 9 9 9 9 9 9 9 9 9 9 9 9 9 9 9 9 9 9
9 9 9 9 9 9 8 8 8 8 8 8 8 8 8 8 8 8 8 8 8 8 8 9 9 9 9 9 9 9 9 9 9 9 9 9 9 9
8 8 8 8 8 8 8 8 8 8 8 8 8 8 7 7 7 8 8 8 8 8 8 8 8 8 8 8 8 8 8 8 8 8 9 9 9 9
8 8 7 7 7 7 7 8 7 7 7 7 7 7 7 7 7 7 7 7 7 7 7 7 8 8 8 8 8 8 8 8 8 8 8 8 8 8
7 7 7 7 7 7 7 7 7 7 7 7 7 7 7 7 7 7 7 7 6 7 7 7 7 7 7 7 8 8 8 8 8 8 8 8 8 8
7 7 7 7 6 6 6 6 6 6 6 6 6 6 6 6 6 6 6 6 6 6 6 6 6 6 6 7 7 7 7 7 7 7 7 7 8 8
6 6 6 6 6 6 6 6 6 6 6 6 6 6 6 6 6 6 6 6 6 6 6 6 6 6 6 6 6 7 7 7 7 7 7 7 7 7
6 6 6 6 6 6 6 5 5 5 5 5 5 5 5 5 5 5 5 5 5 5 5 5 5 5 5 5 6 6 6 6 6 6 7 7 7 7
5 5 5 5 5 5 5 5 5 5 5 5 5 5 5 5 5 5 5 5 5 5 5 5 5 5 5 5 5 5 5 5 6 6 6 6 6 7
5 5 5 5 5 5 5 5 5 5 5 5 5 5 4 4 4 4 4 5 5 5 5 5 5 5 5 5 5 5 5 5 5 5 6 6 6 6
4 4 4 4 4 4 4 4 4 4 4 4 4 4 4 4 4 4 4 4 4 4 4 5 4 4 4 4 4 4 5 5 5 5 5 5 6 6
4 4 4 3 3 3 3 4 4 4 4 4 4 3 3 4 4 4 4 4 4 4 4 4 4 4 4 4 4 4 4 4 4 5 5 5 5 5
3 3 3 3 3 3 3 3 3 3 3 3 3 3 3 3 3 3 3 3 3 3 3 3 3 3 3 3 3 4 4 4 4 4 4 4 5 5
2 2 2 2 2 2 2 2 2 2 2 3 3 3 3 3 3 3 3 3 3 3 3 3 3 3 3 3 3 3 3 4 4 4 4 4 4 4
2 2 2 2 2 2 2 2 2 2 2 2 2 2 2 2 2 2 3 3 3 2 3 3 3 3 3 3 3 3 3 3 4 4 4 4 4 4
1 1 1 1 1 1 1 1 1 1 1 2 2 2 2 2 2 2 2 2 2 2 2 2 2 2 2 2 2 2 3 3 3 3 3 4 3 3
1 1 1 1 1 1 1 1 1 1 1 1 1 1 1 1 1 1 1 2 2 2 2 2 2 2 2 2 2 2 2 3 3 3 3 3 3 3
Wind_Speed
2 2 1 2 2 2 1 1 1 2 2 2 1 2 1 1 3 3 2 3 3 3 3 2 2 2 2 0 0 0 1 0 0 1 1 1 2 2
2 2 2 2 2 1 1 1 1 2 2 2 1 2 1 1 1 2 1 1 3 3 3 3 3 3 3 2 1 1 1 2 1 1 0 0 0 1
2 2 2 2 1 1 1 1 1 1 2 3 2 2 1 1 1 1 1 0 1 3 4 4 4 4 4 3 3 2 3 3 3 2 1 1 1 0
2 2 2 2 1 1 1 1 1 1 1 2 2 2 1 0 1 1 1 1 0 1 3 4 4 5 5 5 4 4 4 4 3 3 3 2 2 2
2 2 3 1 1 1 1 1 1 1 1 1 2 1 1 0 1 1 2 1 2 1 2 3 3 4 5 5 5 5 5 5 4 4 4 4 4 3
2 2 2 1 1 1 1 1 1 0 0 1 2 1 1 1 0 0 1 1 2 2 1 2 3 4 5 5 5 6 5 6 5 5 5 4 4 5
3 2 1 1 1 1 1 1 1 0 1 1 2 1 1 1 1 1 0 1 2 1 1 1 0 1 3 5 5 5 6 6 6 5 5 5 5 5
3 3 1 1 1 2 2 3 2 1 2 2 2 2 3 2 1 1 0 1 3 2 1 2 1 1 1 3 5 6 6 6 6 5 5 5 6 6
3 3 3 2 2 1 2 3 3 4 3 2 2 3 3 3 1 1 2 2 3 3 2 3 2 2 2 4 5 5 5 6 6 6 6 6 6 6
3 3 2 1 1 1 2 2 2 2 2 2 3 4 3 3 2 3 3 2 3 3 1 3 3 3 2 1 5 6 6 6 5 5 6 6 6 7
3 3 2 1 2 2 1 2 2 2 2 3 3 4 5 5 3 1 2 2 3 3 2 2 3 2 2 2 3 5 6 5 5 6 6 6 7 7
3 3 3 2 4 3 1 2 3 3 3 3 3 4 3 4 4 3 3 3 3 3 2 2 3 2 2 2 1 1 2 4 6 6 6 7 6 4
3 3 2 3 4 5 4 3 4 4 3 2 2 2 2 2 2 2 2 3 3 4 3 2 3 2 2 2 2 1 1 1 3 4 6 6 6 5
3 2 3 5 6 6 5 5 5 4 2 2 2 2 2 2 2 1 1 2 3 4 3 2 3 3 2 3 3 2 1 1 1 2 3 4 5 6
3 4 6 7 6 4 5 6 4 2 2 2 3 3 2 2 1 1 2 2 3 4 4 3 3 3 2 3 3 2 2 2 1 2 2 2 2 2
3 4 7 6 5 4 4 4 3 2 2 3 3 2 2 2 2 2 2 3 3 3 3 3 2 2 3 2 2 3 2 2 2 2 2 2 2 3
3 3 3 3 3 2 2 2 2 2 2 2 2 2 2 2 2 2 2 2 3 3 3 2 1 1 1 2 2 3 3 2 2 3 2 2 2 3
3 2 3 2 2 3 3 3 2 2 2 1 2 2 2 2 3 2 2 2 3 3 3 2 1 2 2 2 2 3 2 2 2 2 2 2 3 2
2 2 2 3 3 3 3 3 3 3 2 2 2 2 2 3 2 2 3 3 3 3 3 2 1 2 2 4 3 3 3 3 2 2 2 2 3 3
1 2 2 3 3 3 3 3 3 3 3 3 2 2 2 2 2 2 3 3 3 3 2 2 2 2 3 4 3 3 5 4 3 3 3 2 2 2
2 2 3 3 3 3 3 3 3 3 3 3 3 3 2 2 2 2 2 3 3 3 3 3 4 4 2 1 2 3 3 6 5 3 3 2 2 1
2 2 2 3 3 3 3 3 3 3 3 3 3 3 3 2 3 3 3 3 3 3 3 2 2 1 1 2 3 4 3 3 5 6 6 6 4 4
2 2 2 3 3 3 3 3 4 3 4 4 3 3 3 3 3 3 3 3 3 2 2 2 2 2 2 3 3 3 4 3 1 1 2 4 6 6
Wind_Direction
298 300 306 293 297 294 285 206 214 275 280 282 324 339 18 136 156 149 156 175 184 181 182 185 164 155 158 184 355 327 191 169 142 123 101 71 76 77
279 291 292 280 288 301 296 268 233 230 267 287 306 303 344 4 102 113 136 147 183 182 181 190 201 200 196 201 232 270 229 208 187 178 147 54 112 102
298 311 309 308 321 320 313 294 269 184 252 295 311 314 344 56 47 56 320 93 174 202 202 210 221 225 221 227 240 247 235 216 208 208 209 214 214 218
292 295 287 296 296 303 300 293 282 223 204 265 294 307 330 42 66 18 347 329 332 217 217 225 225 224 226 232 237 235 225 214 214 220 221 221 228 235
300 295 297 308 301 316 313 317 297 283 198 223 264 277 314 307 46 12 348 344 320 292 228 230 234 233 231 235 236 232 228 217 217 218 224 226 233 238
296 302 309 335 316 316 302 302 300 289 241 221 239 267 284 293 65 346 335 347 330 327 320 239 238 243 239 237 238 232 229 220 215 220 229 231 235 239
321 324 338 12 24 9 341 321 326 278 253 233 242 279 278 291 274 248 278 328 322 317 349 335 270 241 241 241 239 233 226 220 218 222 230 234 234 237
311 310 311 337 10 359 11 2 347 262 242 232 246 247 261 262 268 250 250 320 307 316 348 315 347 280 235 225 231 227 225 217 218 223 229 230 231 235
307 305 312 335 359 2 341 326 319 310 277 227 231 249 257 254 240 265 277 276 271 264 300 292 292 280 261 249 232 224 217 217 220 226 232 232 232 229
303 299 299 307 318 332 322 311 288 286 280 259 231 243 256 253 237 239 240 265 277 279 259 271 277 277 285 274 234 220 215 217 227 242 242 234 232 229
311 313 311 326 342 359 336 302 298 286 303 300 287 276 270 275 269 253 250 242 268 270 250 251 267 278 285 280 248 224 210 214 227 240 244 244 238 232
330 337 343 359 0 348 295 265 275 282 289 289 292 289 279 268 264 235 224 237 254 267 256 243 255 276 295 279 260 220 218 232 233 239 245 248 239 219
332 339 337 346 334 326 308 263 263 287 283 263 258 261 254 244 240 250 241 232 247 258 254 253 258 259 250 267 277 248 229 246 245 251 244 236 229 207
317 327 322 322 320 317 306 279 281 291 274 269 262 260 254 256 256 261 290 283 263 263 273 258 247 246 256 268 272 261 251 242 260 260 246 236 235 227
312 316 316 310 308 304 296 296 289 270 257 264 258 258 253 239 243 289 308 301 291 283 277 267 244 238 229 245 259 261 276 277 270 262 245 214 210 197
328 323 315 303 295 286 299 299 278 254 250 252 265 262 261 256 254 257 273 271 279 291 290 268 248 227 238 240 238 262 258 252 276 277 250 228 216 203
326 322 321 329 324 325 324 310 306 299 284 277 275 282 275 263 266 263 258 265 263 269 284 301 286 227 192 218 236 249 253 258 251 252 249 246 237 207
347 328 314 318 327 328 325 325 326 325 317 306 296 288 287 276 272 275 271 261 261 266 262 264 285 302 304 303 238 239 256 255 258 258 245 236 250 234
353 319 321 330 333 331 325 322 325 328 330 318 298 284 283 284 280 272 267 271 266 262 263 257 249 232 249 271 278 242 241 261 258 246 229 225 239 237
347 328 327 331 333 327 325 328 329 332 328 317 308 296 290 288 282 280 276 273 271 269 266 262 245 231 231 248 259 267 241 232 229 231 242 244 250 239
324 321 323 325 327 328 329 327 325 319 319 318 308 300 298 299 293 288 287 284 282 276 264 254 251 249 250 264 273 276 260 235 221 214 213 212 233 242
323 318 316 318 321 320 322 325 323 321 320 320 315 309 308 305 297 292 289 285 275 264 264 266 269 269 255 252 263 270 276 261 244 245 236 217 196 207
334 333 330 329 327 325 322 319 320 320 320 316 315 313 311 307 302 294 287 287 292 284 270 271 278 276 263 256 265 268 266 266 241 211 261 236 217 223
Height
1522 1522 1521 1521 1520 1520 1520 1520 1520 1517 1516 1516 1516 1516 1516 1515 1514 1514 1513 1513 1513 1512 1512 1513 1513 1513 1513 1514 1515 1515 1516 1517 1517 1518 1518 1519 1519 1520
1520 1519 1518 1518 1518 1517 1517 1517 1517 1516 1515 1514 1514 1514 1514 1513 1512 1512 1512 1511 1511 1511 1511 1511 1511 1511 1512 1512 1513 1514 1514 1515 1515 1516 1516 1517 1518 1518
1517 1516 1516 1515 1515 1514 1514 1514 1514 1514 1513 1512 1512 1512 1511 1510 1510 1510 1510 1510 1510 1510 1510 1510 1510 1510 1510 1511 1511 1512 1512 1513 1513 1514 1514 1515 1515 1516
1514 1513 1513 1512 1512 1511 1511 1511 1511 1511 1510 1509 1509 1509 1508 1508 1508 1508 1508 1508 1508 1508 1508 1508 1508 1508 1508 1509 1509 1509 1510 1510 1511 1511 1512 1512 1513 1513
1511 1510 1510 1509 1509 1508 1508 1508 1507 1507 1507 1507 1506 1506 1506 1507 1506 1506 1506 1506 1506 1506 1506 1506 1506 1506 1506 1506 1506 1507 1507 1508 1508 1508 1509 1509 1510 1510
1508 1507 1507 1506 1506 1505 1505 1505 1504 1504 1504 1504 1504 1503 1504 1504 1504 1504 1503 1504 1504 1504 1504 1503 1503 1503 1503 1503 1504 1504 1504 1504 1505 1505 1505 1506 1506 1507
1504 1504 1503 1503 1503 1503 1502 1501 1501 1501 1501 1501 1500 1501 1501 1501 1501 1501 1501 1501 1501 1501 1500 1500 1500 1500 1500 1500 1500 1500 1500 1501 1501 1501 1502 1502 1502 1503
1501 1501 1500 1500 1500 1500 1499 1499 1499 1498 1498 1498 1497 1498 1498 1499 1499 1499 1498 1497 1497 1498 1498 1497 1497 1496 1496 1496 1497 1497 1497 1497 1497 1497 1497 1498 1498 1499
1498 1498 1497 1497 1497 1496 1496 1495 1495 1495 1496 1495 1494 1494 1495 1495 1496 1495 1495 1495 1494 1494 1495 1493 1493 1492 1493 1493 1493 1493 1493 1493 1493 1493 1493 1493 1494 1494
1495 1495 1494 1494 1493 1493 1492 1492 1492 1492 1492 1492 1491 1491 1492 1492 1492 1492 1492 1491 1491 1491 1492 1490 1489 1489 1489 1489 1489 1489 1489 1489 1489 1489 1489 1488 1489 1489
1492 1491 1491 1490 1490 1489 1488 1488 1488 1488 1488 1488 1488 1488 1488 1489 1489 1489 1488 1488 1486 1486 1488 1487 1485 1485 1485 1485 1485 1485 1485 1485 1485 1484 1484 1484 1484 1484
1488 1488 1488 1487 1487 1486 1485 1484 1484 1484 1484 1484 1484 1484 1484 1484 1485 1485 1484 1484 1483 1482 1483 1483 1482 1482 1480 1480 1481 1481 1481 1481 1480 1480 1479 1479 1479 1479
1485 1484 1484 1484 1483 1482 1482 1481 1480 1480 1480 1480 1480 1480 1480 1480 1480 1480 1480 1480 1479 1478 1479 1479 1478 1478 1477 1476 1476 1477 1477 1476 1476 1475 1475 1475 1475 1475
1482 1481 1481 1480 1479 1478 1478 1477 1477 1477 1476 1476 1476 1476 1476 1475 1475 1475 1475 1475 1475 1475 1475 1475 1474 1474 1473 1472 1471 1471 1472 1472 1472 1471 1471 1471 1471 1472
1479 1478 1477 1477 1476 1475 1474 1474 1474 1473 1472 1472 1472 1472 1472 1472 1472 1471 1471 1471 1470 1470 1470 1470 1470 1469 1469 1468 1467 1467 1467 1467 1468 1468 1467 1467 1467 1468
1476 1475 1474 1473 1473 1472 1471 1470 1470 1469 1469 1468 1468 1468 1468 1468 1467 1467 1467 1466 1466 1465 1466 1466 1466 1465 1464 1464 1464 1463 1464 1463 1463 1464 1464 1464 1465 1465
1473 1472 1471 1470 1469 1469 1468 1467 1466 1465 1465 1464 1464 1464 1463 1463 1463 1463 1463 1463 1462 1461 1461 1461 1461 1461 1461 1460 1460 1460 1460 1460 1460 1460 1460 1460 1461 1462
1471 1470 1469 1468 1467 1466 1465 1464 1463 1462 1461 1461 1460 1460 1460 1460 1459 1460 1459 1459 1458 1458 1458 1457 1457 1457 1457 1457 1458 1456 1456 1456 1456 1457 1457 1457 1457 1459
1468 1467 1467 1466 1465 1464 1463 1461 1460 1459 1458 1458 1457 1457 1456 1456 1456 1456 1455 1455 1455 1455 1454 1454 1454 1454 1453 1452 1452 1454 1453 1453 1453 1453 1454 1454 1455 1456
1466 1466 1465 1464 1463 1462 1460 1459 1457 1456 1455 1455 1454 1453 1453 1453 1452 1452 1452 1451 1451 1451 1451 1451 1451 1451 1450 1450 1449 1449 1450 1449 1449 1450 1450 1451 1452 1454
1464 1463 1463 1462 1461 1459 1458 1456 1455 1454 1452 1451 1450 1450 1450 1449 1449 1449 1448 1448 1448 1447 1447 1447 1447 1448 1448 1447 1446 1445 1445 1446 1446 1446 1447 1448 1449 1450
1462 1461 1460 1459 1458 1457 1455 1454 1452 1451 1449 1448 1447 1447 1446 1446 1446 1445 1445 1444 1444 1444 1444 1444 1444 1444 1444 1444 1443 1442 1442 1442 1442 1443 1444 1445 1445 1445
1459 1459 1458 1457 1456 1454 1452 1451 1449 1448 1447 1446 1444 1444 1443 1443 1442 1442 1442 1441 1441 1441 1440 1440 1440 1441 1440 1440 1440 1439 1439 1439 1439 1439 1441 1442 1442 1443